This demonstration page uses our WeatherBlox Daily Observations layout. Learn more.

Left ArrowRight Arrow

39.92423, -83.80882

Hourly Observations for March 30, 2021

Temp ( °F °C ) Dew Point ( °F °C ) Humidity (%) Winds ( mph kmh ) Pressure ( in mb ) Visibility ( mi km ) Precip ( " mm )
1:56 am 01:56 Clear 40 4.4 30 -1.1 68 68 SE 7 11 30.11 1020 10 16 N/A
2:56 am 02:56 Clear 41 5 31 -0.6 67 67 SSE 9 15 30.10 1019 10 16 N/A
3:56 am 03:56 Clear 41 5 30 -1.1 65 65 SSE 7 11 30.09 1019 10 16 N/A
4:56 am 04:56 Clear 41 5 29 -1.7 62 62 SSE 7 11 30.09 1019 10 16 N/A
5:56 am 05:56 Clear 41 5 29 -1.7 62 62 SSE 7 11 30.10 1019 10 16 N/A
6:56 am 06:56 Clear 40 4.4 30 -1.1 68 68 SSE 6 9 30.10 1019 10 16 N/A
7:56 am 07:56 Sunny 43 6.1 30 -1.1 60 60 S 8 13 30.10 1019 10 16 N/A
8:56 am 08:56 Sunny 51 10.6 31 -0.6 46 46 S 14 22 30.08 1019 10 16 N/A
9:56 am 09:56 Sunny 56 13.3 32 undefined 40 40 SSW 16 26 30.06 1018 10 16 N/A
10:56 am 10:56 Sunny 61 16.1 34 1.1 36 36 SW 21 33 30.06 1018 10 16 N/A
11:56 am 11:56 Sunny 63 17.2 35 1.7 35 35 SW 23 37 30.06 1018 10 16 N/A
12:56 pm 12:56 Sunny 65 18.3 36 2.2 34 34 SW 23 37 30.04 1017 10 16 N/A
1:56 pm 13:56 Sunny 67 19.4 36 2.2 32 32 SSW 20 31 30.01 1016 10 16 N/A
2:56 pm 14:56 Sunny 69 20.6 36 2.2 30 30 S 14 22 29.98 1015 10 16 N/A
3:56 pm 15:56 Sunny 71 21.7 39 3.9 31 31 S 18 30 29.95 1014 10 16 N/A
4:56 pm 16:56 Sunny 71 21.7 38 3.3 30 30 SSW 16 26 29.93 1014 10 16 N/A
5:56 pm 17:56 Sunny 71 21.7 39 3.9 31 31 S 16 26 29.91 1013 10 16 N/A
6:56 pm 18:56 Sunny 70 21.1 42 5.6 37 37 S 14 22 29.89 1012 10 16 N/A
7:56 pm 19:56 Sunny 66 18.9 44 6.7 45 45 SSW 13 20 29.90 1013 10 16 N/A
8:56 pm 20:56 Mostly Cloudy 66 18.9 45 7.2 47 47 SSW 13 20 29.92 1013 10 16 N/A
9:56 pm 21:56 Mostly Cloudy 65 18.3 46 7.8 51 51 S 9 15 29.92 1013 10 16 N/A
10:56 pm 22:56 Cloudy 65 18.3 46 7.8 51 51 SSW 7 11 29.92 1013 10 16 N/A
11:56 pm 23:56 Cloudy 65 18.3 47 8.3 52 52 SW 25 41 29.93 1013 10 16 N/A

Powered by AerisWeather